Year,Month,Day,Hour,Minute,Value (Times are PST for temperature in C)
2016,04,06,00,00,10.30
2016,04,06,00,01,10.40
2016,04,06,00,02,10.40
2016,04,06,00,03,10.40
2016,04,06,00,04,10.40
2016,04,06,00,05,10.40
2016,04,06,00,06,10.40
2016,04,06,00,07,10.40
2016,04,06,00,08,10.40
2016,04,06,00,09,10.40
2016,04,06,00,10,10.40
2016,04,06,00,11,10.40
2016,04,06,00,12,10.40
2016,04,06,00,13,10.40
2016,04,06,00,14,10.40
2016,04,06,00,15,10.40
2016,04,06,00,16,10.40
2016,04,06,00,17,10.40
2016,04,06,00,18,10.40
2016,04,06,00,19,10.50
2016,04,06,00,20,10.40
2016,04,06,00,21,10.40
2016,04,06,00,22,10.40
2016,04,06,00,23,10.40
2016,04,06,00,24,10.40
2016,04,06,00,25,10.40
2016,04,06,00,26,10.40
2016,04,06,00,27,10.40
2016,04,06,00,28,10.40
2016,04,06,00,29,10.30
2016,04,06,00,30,10.30
2016,04,06,00,31,10.30
2016,04,06,00,32,10.30
2016,04,06,00,33,10.30
2016,04,06,00,34,10.40
2016,04,06,00,35,10.40
2016,04,06,00,36,10.40
2016,04,06,00,37,10.40
2016,04,06,00,38,10.40
2016,04,06,00,39,10.40
2016,04,06,00,40,10.40
2016,04,06,00,41,10.40
2016,04,06,00,42,10.40
2016,04,06,00,43,10.40
2016,04,06,00,44,10.40
2016,04,06,00,45,10.30
2016,04,06,00,46,10.30
2016,04,06,00,47,10.30
2016,04,06,00,48,10.30
2016,04,06,00,49,10.30
2016,04,06,00,50,10.30
2016,04,06,00,51,10.30
2016,04,06,00,52,10.30
2016,04,06,00,53,10.30
2016,04,06,00,54,10.30
2016,04,06,00,55,10.30
2016,04,06,00,56,10.30
2016,04,06,00,57,10.30
2016,04,06,00,58,10.30
2016,04,06,00,59,10.30
2016,04,06,01,00,10.30
2016,04,06,01,01,10.30
2016,04,06,01,02,10.30
2016,04,06,01,03,10.30
2016,04,06,01,04,10.30
2016,04,06,01,05,10.30
2016,04,06,01,06,10.30
2016,04,06,01,07,10.30
2016,04,06,01,08,10.30
2016,04,06,01,09,10.30
2016,04,06,01,10,10.30
2016,04,06,01,11,10.30
2016,04,06,01,12,10.30
2016,04,06,01,13,10.30
2016,04,06,01,14,10.30
2016,04,06,01,15,10.30
2016,04,06,01,16,10.30
2016,04,06,01,17,10.30
2016,04,06,01,18,10.30
2016,04,06,01,19,10.30
2016,04,06,01,20,10.30
2016,04,06,01,21,10.30
2016,04,06,01,22,10.30
2016,04,06,01,23,10.30
2016,04,06,01,24,10.30
2016,04,06,01,25,10.30
2016,04,06,01,26,10.30
2016,04,06,01,27,10.30
2016,04,06,01,28,10.30
2016,04,06,01,29,10.30
2016,04,06,01,30,10.30
2016,04,06,01,31,10.30
2016,04,06,01,32,10.30
2016,04,06,01,33,10.30
2016,04,06,01,34,10.30
2016,04,06,01,35,10.30
2016,04,06,01,36,10.30
2016,04,06,01,37,10.30
2016,04,06,01,38,10.30
2016,04,06,01,39,10.30
2016,04,06,01,40,10.40
2016,04,06,01,41,10.40
2016,04,06,01,42,10.40
2016,04,06,01,43,10.40
2016,04,06,01,44,10.40
2016,04,06,01,45,10.40
2016,04,06,01,46,10.40
2016,04,06,01,47,10.40
2016,04,06,01,48,10.40
2016,04,06,01,49,10.40
2016,04,06,01,50,10.40
2016,04,06,01,51,10.40
2016,04,06,01,52,10.40
2016,04,06,01,53,10.40
2016,04,06,01,54,10.40
2016,04,06,01,55,10.30
2016,04,06,01,56,10.30
2016,04,06,01,57,10.30
2016,04,06,01,58,10.30
2016,04,06,01,59,10.30
2016,04,06,02,00,10.30
2016,04,06,02,01,10.30
2016,04,06,02,02,10.30
2016,04,06,02,03,10.30
2016,04,06,02,04,10.30
2016,04,06,02,05,10.30
2016,04,06,02,06,10.20
2016,04,06,02,07,10.20
2016,04,06,02,08,10.20
2016,04,06,02,09,10.20
2016,04,06,02,10,10.20
2016,04,06,02,11,10.20
2016,04,06,02,12,10.20
2016,04,06,02,13,10.20
2016,04,06,02,14,10.20
2016,04,06,02,15,10.20
2016,04,06,02,16,10.20
2016,04,06,02,17,10.20
2016,04,06,02,18,10.20
2016,04,06,02,19,10.30
2016,04,06,02,20,10.30
2016,04,06,02,21,10.30
2016,04,06,02,22,10.30
2016,04,06,02,23,10.30
2016,04,06,02,24,10.30
2016,04,06,02,25,10.30
2016,04,06,02,26,10.40
2016,04,06,02,27,10.40
2016,04,06,02,28,10.40
2016,04,06,02,29,10.40
2016,04,06,02,30,10.40
2016,04,06,02,31,10.40
2016,04,06,02,32,10.40
2016,04,06,02,33,10.40
2016,04,06,02,34,10.50
2016,04,06,02,35,10.50
2016,04,06,02,36,10.50
2016,04,06,02,37,10.50
2016,04,06,02,38,10.50
2016,04,06,02,39,10.60
2016,04,06,02,40,10.60
2016,04,06,02,41,10.60
2016,04,06,02,42,10.60
2016,04,06,02,43,10.60
2016,04,06,02,44,10.70
2016,04,06,02,45,10.70
2016,04,06,02,46,10.70
2016,04,06,02,47,10.70
2016,04,06,02,48,10.70
2016,04,06,02,49,10.70
2016,04,06,02,50,10.60
2016,04,06,02,51,10.60
2016,04,06,02,52,10.60
2016,04,06,02,53,10.70
2016,04,06,02,54,10.70
2016,04,06,02,55,10.70
2016,04,06,02,56,10.70
2016,04,06,02,57,10.70
2016,04,06,02,58,10.70
2016,04,06,02,59,10.70
2016,04,06,03,00,10.70
2016,04,06,03,01,10.70
2016,04,06,03,02,10.60
2016,04,06,03,03,10.60
2016,04,06,03,04,10.60
2016,04,06,03,05,10.60
2016,04,06,03,06,10.60
2016,04,06,03,07,10.60
2016,04,06,03,08,10.60
2016,04,06,03,09,10.60
2016,04,06,03,10,10.60
2016,04,06,03,11,10.60
2016,04,06,03,12,10.50
2016,04,06,03,13,10.50
2016,04,06,03,14,10.50
2016,04,06,03,15,10.50
2016,04,06,03,16,10.40
2016,04,06,03,17,10.40
2016,04,06,03,18,10.40
2016,04,06,03,19,10.40
2016,04,06,03,20,10.40
2016,04,06,03,21,10.40
2016,04,06,03,22,10.40
2016,04,06,03,23,10.40
2016,04,06,03,24,10.40
2016,04,06,03,25,10.30
2016,04,06,03,26,10.30
2016,04,06,03,27,10.30
2016,04,06,03,28,10.30
2016,04,06,03,29,10.30
2016,04,06,03,30,10.30
2016,04,06,03,31,10.30
2016,04,06,03,32,10.30
2016,04,06,03,33,10.30
2016,04,06,03,34,10.30
2016,04,06,03,35,10.20
2016,04,06,03,36,10.20
2016,04,06,03,37,10.20
2016,04,06,03,38,10.20
2016,04,06,03,39,10.20
2016,04,06,03,40,10.20
2016,04,06,03,41,10.20
2016,04,06,03,42,10.20
2016,04,06,03,43,10.20
2016,04,06,03,44,10.10
2016,04,06,03,45,10.10
2016,04,06,03,46,10.10
2016,04,06,03,47,10.10
2016,04,06,03,48,10.10
2016,04,06,03,49,10.10
2016,04,06,03,50,10.00
2016,04,06,03,51,10.00
2016,04,06,03,52,10.00
2016,04,06,03,53,10.00
2016,04,06,03,54,10.00
2016,04,06,03,55,10.00
2016,04,06,03,56,10.00
2016,04,06,03,57,10.00
2016,04,06,03,58,10.00
2016,04,06,03,59,10.00
2016,04,06,04,00,10.00
2016,04,06,04,01,10.00
2016,04,06,04,02,10.00
2016,04,06,04,03,9.90
2016,04,06,04,04,9.90
2016,04,06,04,05,9.90
2016,04,06,04,06,9.90
2016,04,06,04,07,9.90
2016,04,06,04,08,9.90
2016,04,06,04,09,9.90
2016,04,06,04,10,9.90
2016,04,06,04,11,9.90
2016,04,06,04,12,9.90
2016,04,06,04,13,9.90
2016,04,06,04,14,9.90
2016,04,06,04,15,9.80
2016,04,06,04,16,9.80
2016,04,06,04,17,9.80
2016,04,06,04,18,9.80
2016,04,06,04,19,9.80
2016,04,06,04,20,9.80
2016,04,06,04,21,9.80
2016,04,06,04,22,9.80
2016,04,06,04,23,9.80
2016,04,06,04,24,9.80
2016,04,06,04,25,9.80
2016,04,06,04,26,9.80
2016,04,06,04,27,9.80
2016,04,06,04,28,9.80
2016,04,06,04,29,9.80
2016,04,06,04,30,9.80
2016,04,06,04,31,9.80
2016,04,06,04,32,9.80
2016,04,06,04,33,9.80
2016,04,06,04,34,9.80
2016,04,06,04,35,9.80
2016,04,06,04,36,9.80
2016,04,06,04,37,9.80
2016,04,06,04,38,9.80
2016,04,06,04,39,9.80
2016,04,06,04,40,9.80
2016,04,06,04,41,9.70
2016,04,06,04,42,9.70
2016,04,06,04,43,9.70
2016,04,06,04,44,9.70
2016,04,06,04,45,9.70
2016,04,06,04,46,9.70
2016,04,06,04,47,9.70
2016,04,06,04,48,9.70
2016,04,06,04,49,9.70
2016,04,06,04,50,9.70
2016,04,06,04,51,9.70
2016,04,06,04,52,9.70
2016,04,06,04,53,9.70
2016,04,06,04,54,9.70
2016,04,06,04,55,9.70
2016,04,06,04,56,9.70
2016,04,06,04,57,9.70
2016,04,06,04,58,9.70
2016,04,06,04,59,9.70
2016,04,06,05,00,9.70
2016,04,06,05,01,9.70
2016,04,06,05,02,9.70
2016,04,06,05,03,9.70
2016,04,06,05,04,9.70
2016,04,06,05,05,9.70
2016,04,06,05,06,9.60
2016,04,06,05,07,9.60
2016,04,06,05,08,9.60
2016,04,06,05,09,9.60
2016,04,06,05,10,9.70
2016,04,06,05,11,9.70
2016,04,06,05,12,9.70
2016,04,06,05,13,9.70
2016,04,06,05,14,9.70
2016,04,06,05,15,9.70
2016,04,06,05,16,9.70
2016,04,06,05,17,9.70
2016,04,06,05,18,9.70
2016,04,06,05,19,9.70
2016,04,06,05,20,9.70
2016,04,06,05,21,9.70
2016,04,06,05,22,9.70
2016,04,06,05,23,9.70
2016,04,06,05,24,9.70
2016,04,06,05,25,9.70
2016,04,06,05,26,9.70
2016,04,06,05,27,9.70
2016,04,06,05,28,9.70
2016,04,06,05,29,9.70
2016,04,06,05,30,9.70
2016,04,06,05,31,9.70
2016,04,06,05,32,9.70
2016,04,06,05,33,9.70
2016,04,06,05,34,9.70
2016,04,06,05,35,9.70
2016,04,06,05,36,9.70
2016,04,06,05,37,9.70
2016,04,06,05,38,9.70
2016,04,06,05,39,9.80
2016,04,06,05,40,9.80
2016,04,06,05,41,9.80
2016,04,06,05,42,9.80
2016,04,06,05,43,9.80
2016,04,06,05,44,9.80
2016,04,06,05,45,9.80
2016,04,06,05,46,9.80
2016,04,06,05,47,9.80
2016,04,06,05,48,9.80
2016,04,06,05,49,9.80
2016,04,06,05,50,9.80
2016,04,06,05,51,9.80
2016,04,06,05,52,9.80
2016,04,06,05,53,9.80
2016,04,06,05,54,9.80
2016,04,06,05,55,9.80
2016,04,06,05,56,9.80
2016,04,06,05,57,9.80
2016,04,06,05,58,9.80
2016,04,06,05,59,9.80
2016,04,06,06,00,9.80
2016,04,06,06,01,9.80
2016,04,06,06,02,9.80
2016,04,06,06,03,9.80
2016,04,06,06,04,9.70
2016,04,06,06,05,9.70
2016,04,06,06,06,9.70
2016,04,06,06,07,9.70
2016,04,06,06,08,9.70
2016,04,06,06,09,9.70
2016,04,06,06,10,9.70
2016,04,06,06,11,9.70
2016,04,06,06,12,9.70
2016,04,06,06,13,9.70
2016,04,06,06,14,9.70
2016,04,06,06,15,9.70
2016,04,06,06,16,9.70
2016,04,06,06,17,9.70
2016,04,06,06,18,9.70
2016,04,06,06,19,9.70
2016,04,06,06,20,9.70
2016,04,06,06,21,9.70
2016,04,06,06,22,9.70
2016,04,06,06,23,9.70
2016,04,06,06,24,9.70
2016,04,06,06,25,9.70
2016,04,06,06,26,9.70
2016,04,06,06,27,9.70
2016,04,06,06,28,9.70
2016,04,06,06,29,9.70
2016,04,06,06,30,9.70
2016,04,06,06,31,9.70
2016,04,06,06,32,9.70
2016,04,06,06,33,9.70
2016,04,06,06,34,9.70
2016,04,06,06,35,9.70
2016,04,06,06,36,9.70
2016,04,06,06,37,9.70
2016,04,06,06,38,9.70
2016,04,06,06,39,9.70
2016,04,06,06,40,9.70
2016,04,06,06,41,9.70
2016,04,06,06,42,9.70
2016,04,06,06,43,9.70
2016,04,06,06,44,9.70
2016,04,06,06,45,9.70
2016,04,06,06,46,9.70
2016,04,06,06,47,9.70
2016,04,06,06,48,9.70
2016,04,06,06,49,9.70
2016,04,06,06,50,9.70
2016,04,06,06,51,9.70
2016,04,06,06,52,9.70
2016,04,06,06,53,9.70
2016,04,06,06,54,9.70
2016,04,06,06,55,9.70
2016,04,06,06,56,9.70
2016,04,06,06,57,9.70
2016,04,06,06,58,9.70
2016,04,06,06,59,9.70
2016,04,06,07,00,9.70
2016,04,06,07,01,9.70
2016,04,06,07,02,9.70
2016,04,06,07,03,9.70
2016,04,06,07,04,9.70
2016,04,06,07,05,9.70
2016,04,06,07,06,9.60
2016,04,06,07,07,9.70
2016,04,06,07,08,9.60
2016,04,06,07,09,9.60
2016,04,06,07,10,9.60
2016,04,06,07,11,9.60
2016,04,06,07,12,9.60
2016,04,06,07,13,9.60
2016,04,06,07,14,9.60
2016,04,06,07,15,9.60
2016,04,06,07,16,9.60
2016,04,06,07,17,9.60
2016,04,06,07,18,9.60
2016,04,06,07,19,9.60
2016,04,06,07,20,9.60
2016,04,06,07,21,9.60
2016,04,06,07,22,9.60
2016,04,06,07,23,9.60
2016,04,06,07,24,9.60
2016,04,06,07,25,9.60
2016,04,06,07,26,9.60
2016,04,06,07,27,9.50
2016,04,06,07,28,9.60
2016,04,06,07,29,9.60
2016,04,06,07,30,9.60
2016,04,06,07,31,9.60
2016,04,06,07,32,9.60
2016,04,06,07,33,9.60
2016,04,06,07,34,9.60
2016,04,06,07,35,9.60
2016,04,06,07,36,9.70
2016,04,06,07,37,9.70
2016,04,06,07,38,9.70
2016,04,06,07,39,9.70
2016,04,06,07,40,9.70
2016,04,06,07,41,9.70
2016,04,06,07,42,9.70
2016,04,06,07,43,9.70
2016,04,06,07,44,9.70
2016,04,06,07,45,9.70
2016,04,06,07,46,9.70
2016,04,06,07,47,9.80
2016,04,06,07,48,9.80
2016,04,06,07,49,9.80
2016,04,06,07,50,9.80
2016,04,06,07,51,9.80
2016,04,06,07,52,9.80
2016,04,06,07,53,9.80
2016,04,06,07,54,9.80
2016,04,06,07,55,9.80
2016,04,06,07,56,9.80
2016,04,06,07,57,9.80
2016,04,06,07,58,9.80
2016,04,06,07,59,9.80
2016,04,06,08,00,9.80
2016,04,06,08,01,9.80
2016,04,06,08,02,9.80
2016,04,06,08,03,9.80
2016,04,06,08,04,9.80
2016,04,06,08,05,9.80
2016,04,06,08,06,9.80
2016,04,06,08,07,9.80
2016,04,06,08,08,9.80
2016,04,06,08,09,9.80
2016,04,06,08,10,9.80
2016,04,06,08,11,9.80
2016,04,06,08,12,9.80
2016,04,06,08,13,9.80
2016,04,06,08,14,9.80
2016,04,06,08,15,9.80
2016,04,06,08,16,9.80
2016,04,06,08,17,9.80
2016,04,06,08,18,9.80
2016,04,06,08,19,9.80
2016,04,06,08,20,9.80
2016,04,06,08,21,9.80
